Location: La Brionne
(46.1728°N, 1.7849°E)
Time: 17:02:38
(UTC+00:00)

Cosmos 1544 Rocket - Pass Details

Date: 31 October 2021
Orbit: 603 x 632 km, 82.5° (Epoch: 27 November)

Event Time Altitude Azimuth Distance (km) Brightness Sun altitude
Exits shadow 03:35:20 34° 79° (E) 1,022 5.1 -31.0°
Drops below altitude 10° 03:39:06 10° 140° (SE) 1,955 6.4 -30.4°
Sets 03:41:28 0° 149° (SSE) 2,850 7.2 -30.0°
